Wind_Speed
10 9 10 11 12 10 10 11 11 11 10 9 9 7 9 10 9 10 11 12 13 12 14 13 12 12 12 12 10 13 11 10 10 9 11 10 10 11 8 9 9 8 7
11 9 11 10 11 10 10 9 10 9 9 9 11 9 9 11 11 12 12 13 13 12 11 11 10 10 11 12 13 11 11 11 11 12 10 10 12 11 10 11 9 8 8
12 11 11 11 10 9 9 9 10 9 9 10 10 11 10 11 12 11 10 12 13 14 11 10 10 13 14 13 15 13 13 12 12 12 12 11 12 10 11 9 11 10 12
12 12 12 11 10 10 9 9 9 8 8 10 10 9 10 10 10 10 9 9 12 12 11 10 11 13 13 14 15 15 14 13 11 12 10 9 9 11 11 11 12 12 13
10 12 13 13 11 12 10 9 9 8 7 8 9 8 8 9 9 8 8 9 9 10 9 8 11 12 12 12 13 12 10 11 11 10 10 9 10 12 11 11 12 12 10
8 9 11 12 12 12 10 10 9 9 7 7 7 6 7 9 9 9 8 6 8 9 10 9 10 12 8 10 9 11 11 14 11 13 9 10 10 11 10 9 11 9 9
7 8 9 10 10 12 12 12 9 8 7 7 8 7 8 8 8 7 7 8 8 9 9 10 10 9 7 7 7 9 11 10 11 11 8 8 9 10 8 8 10 11 13
6 7 7 8 9 10 11 12 12 10 8 8 9 8 8 9 8 7 7 7 8 9 10 10 7 5 5 6 7 9 9 8 9 10 9 9 9 7 6 9 10 12 11
4 5 5 7 10 8 9 11 11 11 8 8 8 9 9 9 9 8 8 9 9 9 8 7 3 4 7 8 9 10 8 8 9 9 11 11 8 7 9 8 12 10 9
3 3 4 6 6 10 11 11 11 11 8 7 9 11 10 10 11 9 9 10 10 8 6 5 6 6 6 8 10 12 6 8 10 12 10 8 10 9 8 10 11 9 10
2 2 3 5 5 8 9 10 8 7 5 4 8 9 11 12 13 12 11 10 10 10 9 8 8 8 9 9 8 13 10 9 9 6 7 7 9 8 8 9 10 10 11
3 1 1 4 3 4 6 7 7 6 3 5 7 9 8 12 12 10 10 10 10 9 9 9 9 10 11 12 8 11 12 7 6 10 9 10 9 7 9 8 9 9 11
4 5 6 4 3 3 6 4 5 2 8 6 7 8 8 8 11 10 8 8 9 9 10 9 8 9 9 11 7 9 7 8 7 7 6 9 8 5 5 8 9 9 8
8 5 3 1 1 2 4 2 7 4 10 7 6 5 6 5 5 7 7 7 7 6 6 8 7 8 8 7 5 7 5 5 8 7 9 5 6 4 4 5 7 9 8
9 10 10 8 5 2 2 4 8 5 6 7 5 4 2 3 4 5 5 5 6 7 6 5 6 5 5 5 6 4 5 3 5 6 6 6 3 3 3 4 4 5 6
6 9 11 11 8 6 2 3 4 5 3 6 5 4 1 1 4 7 6 3 3 4 6 5 4 4 3 3 3 4 5 4 4 6 6 7 4 4 3 3 4 4 3
11 9 8 9 11 11 8 3 3 2 3 6 6 9 4 4 3 6 5 1 3 2 5 4 2 2 3 2 2 2 3 3 3 5 5 5 5 4 4 4 3 3 3
9 13 9 10 9 9 6 5 4 4 5 7 7 7 6 3 5 9 5 2 5 1 9 5 3 3 3 2 3 3 3 1 2 4 4 5 4 6 4 4 2 3 3
10 10 8 10 10 9 9 6 5 6 6 4 8 7 1 7 11 12 8 4 8 7 12 6 2 2 6 2 2 1 2 3 4 3 5 5 5 6 6 5 2 2 2
8 8 4 7 7 7 9 9 5 5 7 6 9 14 13 13 14 12 10 5 5 9 10 7 4 6 6 3 4 5 5 4 4 5 5 7 8 7 5 5 2 1 4
4 4 3 8 9 9 12 11 7 5 7 7 6 4 8 10 11 9 8 7 5 4 3 2 4 3 3 4 6 6 7 4 6 6 5 7 10 7 6 8 9 5 2
7 3 2 4 9 14 12 8 7 6 6 6 8 6 7 5 6 7 7 8 7 6 4 1 1 0 1 3 2 1 5 8 8 10 8 10 12 13 14 12 13 10 11
4 3 2 8 13 15 13 10 9 9 9 8 7 10 8 11 11 12 11 8 6 3 7 5 4 4 5 6 5 6 7 10 12 14 13 14 17 16 18 22 19 16 13
5 9 6 6 10 10 6 5 5 8 11 13 13 12 13 17 22 24 16 12 10 8 7 7 10 9 9 9 12 16 14 13 13 14 16 17 19 20 21 21 21 19 17
9 11 10 8 6 6 3 3 5 6 5 11 11 15 14 21 19 17 18 13 10 10 11 12 14 15 16 14 16 18 16 15 14 12 12 15 16 18 20 21 26 23 21
8 6 7 9 10 7 5 4 2 3 5 9 13 11 16 13 16 11 12 7 5 7 17 17 16 17 18 15 14 12 12 11 12 10 12 10 12 16 16 14 12 17 15
Wind_Direction
55 57 68 67 56 55 58 61 63 74 79 69 68 91 99 100 97 97 97 101 104 104 105 111 99 100 106 110 101 92 94 92 93 106 80 63 62 61 63 59 54 58 63
57 60 66 66 61 52 61 66 68 68 74 70 76 90 105 105 96 91 93 97 104 110 114 119 118 110 97 90 89 88 89 97 98 76 71 62 57 62 61 56 56 68 67
64 63 68 68 65 56 53 64 67 59 65 71 76 91 100 96 98 96 92 101 105 110 114 114 112 102 100 100 98 100 100 89 81 81 66 68 68 64 63 51 39 43 49
68 65 67 66 62 59 56 57 67 62 56 66 81 90 98 93 93 100 98 93 96 102 106 107 107 99 104 95 89 88 102 97 98 85 73 64 67 66 66 56 46 49 46
72 67 65 62 59 58 55 52 59 63 52 56 74 82 95 103 98 95 106 109 110 118 117 106 104 99 92 84 88 91 85 96 84 80 86 77 70 61 54 49 49 54 50
81 74 60 65 67 63 58 57 52 61 57 55 60 80 86 94 102 106 116 117 126 133 130 119 111 115 104 83 99 102 94 102 117 74 62 73 65 61 55 55 55 56 53
74 77 70 65 70 78 67 61 54 53 62 65 67 67 78 91 97 97 100 106 122 132 132 131 118 121 107 91 107 110 97 95 84 76 56 68 69 66 65 71 66 58 49
57 70 70 65 60 76 70 60 51 48 48 58 70 74 75 82 92 90 80 88 108 123 133 138 127 97 89 93 110 102 95 103 107 104 85 54 63 66 67 69 69 61 53
55 73 74 63 71 69 68 48 48 43 48 60 72 79 77 78 85 88 84 79 86 102 121 131 127 95 88 77 88 104 134 112 104 88 80 77 55 57 53 56 59 56 54
75 79 97 82 84 56 54 49 42 40 34 68 72 80 82 80 82 85 88 93 94 98 102 96 79 69 88 114 139 144 145 103 94 71 65 79 75 47 42 55 56 55 51
148 130 115 109 99 64 40 50 29 18 52 82 92 96 98 89 84 84 89 93 99 105 102 98 93 93 87 88 87 94 105 91 78 134 51 62 58 51 27 43 55 55 54
144 187 151 108 93 37 36 41 8 2 128 124 107 103 103 104 97 90 92 96 99 100 104 100 95 84 87 71 63 68 81 102 71 81 52 53 58 49 65 35 38 38 49
189 197 198 136 89 19 38 28 36 41 157 145 136 121 115 108 110 109 107 98 99 101 98 96 92 90 82 61 80 63 62 75 67 69 35 45 43 37 51 57 55 50 46
195 209 250 280 193 251 51 22 49 69 152 152 133 136 112 99 112 120 115 123 119 106 108 108 102 99 98 96 96 91 64 50 46 50 61 65 36 38 43 55 55 55 53
196 186 198 206 199 234 305 51 60 43 148 164 175 162 93 92 104 101 124 127 135 138 139 125 120 107 101 96 91 92 77 67 67 53 43 42 28 33 45 53 56 57 55
254 205 184 196 177 201 222 70 79 62 134 166 182 167 178 70 154 148 136 144 146 169 153 153 160 144 132 110 96 95 97 68 51 24 27 28 14 358 11 37 52 56 50
226 239 193 182 174 198 169 134 114 62 59 192 189 185 165 221 208 178 163 139 5 237 173 157 173 149 125 98 88 53 68 64 19 8 349 17 23 347 342 6 30 53 53
203 212 209 185 188 194 165 144 116 81 48 173 175 175 169 263 231 183 162 113 41 163 161 160 154 215 180 145 134 125 111 57 5 347 353 349 331 21 0 287 317 0 25
227 211 224 193 180 190 175 157 115 97 49 57 194 172 151 176 154 155 151 128 38 116 142 120 33 328 198 170 160 106 6 340 15 0 0 9 358 344 351 344 304 293 325
252 242 177 195 203 207 195 160 136 124 111 110 136 159 157 152 162 161 149 131 105 104 115 126 92 49 86 140 243 237 285 358 13 327 345 341 345 10 326 319 351 275 240
201 253 247 163 168 213 215 177 176 160 160 170 169 174 170 159 170 175 160 170 148 123 112 120 95 52 35 66 53 199 209 293 304 324 322 311 327 315 301 293 301 306 312
77 64 122 212 208 214 211 194 203 215 209 208 214 223 207 208 197 219 226 189 188 189 168 227 288 109 294 322 12 345 271 290 293 290 300 295 296 293 291 285 275 269 276
6 37 190 194 191 204 197 196 197 230 241 255 245 251 251 246 226 229 221 200 211 225 221 261 254 279 290 295 297 287 286 287 294 294 292 287 287 286 289 272 286 293 305
67 66 139 182 183 188 167 191 221 246 259 262 271 260 264 274 268 240 230 232 204 210 236 262 272 286 279 296 290 292 291 291 283 287 292 288 289 286 290 301 288 289 304
114 86 94 153 167 129 180 183 241 249 255 259 269 253 274 270 292 259 244 248 209 236 245 248 266 275 284 294 293 293 300 304 305 294 298 295 288 292 292 306 290 283 291
108 91 102 99 91 108 144 155 207 275 293 291 281 256 239 255 269 244 257 256 264 278 255 254 259 275 288 297 318 289 296 301 302 301 306 323 302 294 294 314 311 308 306
Height
5896 5895 5893 5892 5891 5891 5891 5891 5890 5890 5891 5890 5888 5887 5888 5888 5887 5887 5887 5887 5888 5889 5890 5891 5890 5891 5892 5892 5892 5891 5893 5893 5893 5895 5891 5891 5891 5890 5891 5890 5889 5888 5888
5897 5896 5895 5895 5894 5895 5894 5893 5893 5893 5893 5893 5891 5890 5890 5890 5890 5890 5890 5890 5891 5892 5892 5892 5893 5893 5893 5893 5892 5894 5895 5896 5895 5891 5892 5894 5893 5892 5892 5892 5891 5890 5889
5899 5898 5898 5898 5898 5897 5897 5896 5895 5895 5894 5895 5894 5893 5893 5893 5892 5892 5892 5893 5895 5895 5894 5894 5894 5895 5895 5895 5896 5897 5896 5895 5895 5895 5894 5894 5893 5893 5892 5893 5892 5890 5886
5902 5901 5900 5900 5899 5899 5899 5898 5897 5897 5896 5896 5897 5897 5896 5896 5896 5896 5895 5895 5895 5896 5897 5898 5897 5898 5897 5897 5897 5896 5895 5895 5896 5896 5896 5895 5895 5894 5894 5892 5891 5889 5887
5904 5904 5903 5903 5902 5901 5901 5900 5899 5899 5899 5898 5899 5899 5898 5898 5898 5897 5898 5898 5898 5897 5897 5897 5897 5899 5897 5898 5897 5896 5896 5898 5898 5899 5897 5897 5897 5895 5894 5893 5892 5890 5891
5904 5905 5905 5904 5904 5903 5902 5901 5901 5900 5900 5900 5900 5900 5899 5899 5900 5899 5899 5898 5898 5899 5898 5898 5899 5900 5902 5900 5900 5899 5899 5899 5901 5899 5900 5898 5898 5897 5896 5897 5894 5893 5892
5904 5905 5905 5904 5903 5904 5904 5903 5903 5903 5902 5901 5900 5900 5900 5899 5900 5900 5900 5900 5899 5898 5898 5899 5901 5904 5902 5902 5903 5901 5900 5902 5901 5902 5903 5900 5899 5898 5899 5897 5895 5894 5892
5905 5905 5905 5904 5903 5904 5905 5905 5905 5905 5904 5902 5901 5901 5901 5900 5901 5901 5902 5902 5902 5902 5902 5902 5903 5904 5905 5904 5904 5901 5902 5905 5903 5904 5903 5902 5901 5901 5901 5896 5895 5893 5894
5906 5906 5906 5905 5905 5905 5905 5906 5906 5906 5906 5904 5903 5903 5903 5902 5903 5903 5903 5904 5903 5903 5903 5904 5904 5904 5904 5903 5902 5906 5909 5907 5905 5904 5902 5902 5904 5903 5900 5899 5895 5896 5897
5907 5907 5906 5906 5906 5906 5907 5907 5907 5907 5907 5906 5906 5906 5905 5905 5905 5905 5905 5906 5906 5905 5905 5905 5905 5905 5906 5908 5909 5910 5907 5908 5905 5903 5904 5904 5902 5902 5902 5900 5898 5898 5897
5908 5907 5906 5907 5906 5907 5909 5908 5908 5907 5907 5909 5908 5908 5908 5908 5908 5908 5908 5908 5908 5908 5908 5908 5909 5908 5907 5906 5906 5908 5907 5904 5904 5905 5907 5905 5903 5903 5904 5902 5900 5898 5896
5907 5907 5907 5907 5908 5909 5909 5909 5908 5907 5907 5909 5910 5910 5911 5910 5910 5910 5911 5911 5910 5910 5909 5909 5909 5910 5909 5909 5908 5907 5907 5908 5907 5908 5908 5906 5905 5906 5903 5904 5901 5899 5897
5906 5907 5906 5908 5908 5910 5909 5909 5907 5907 5908 5909 5911 5912 5913 5913 5912 5912 5913 5913 5912 5912 5912 5911 5910 5910 5910 5911 5911 5910 5910 5909 5909 5907 5908 5907 5907 5907 5905 5903 5901 5899 5900
5906 5904 5904 5906 5908 5909 5909 5909 5908 5908 5909 5911 5912 5914 5914 5914 5915 5914 5914 5914 5913 5914 5913 5913 5913 5913 5913 5912 5912 5912 5910 5909 5909 5908 5908 5908 5908 5906 5905 5904 5902 5901 5900
5908 5907 5907 5909 5910 5908 5908 5908 5909 5910 5910 5912 5912 5914 5914 5914 5914 5915 5916 5916 5914 5913 5913 5914 5914 5913 5913 5912 5912 5912 5912 5912 5912 5911 5909 5910 5910 5907 5906 5905 5903 5902 5902
5909 5907 5907 5909 5909 5908 5910 5910 5910 5910 5908 5909 5911 5913 5914 5913 5912 5913 5915 5915 5914 5913 5912 5914 5914 5913 5912 5913 5913 5913 5913 5913 5913 5912 5912 5911 5909 5908 5907 5905 5904 5904 5903
5905 5908 5907 5905 5908 5908 5910 5911 5910 5910 5908 5907 5910 5910 5911 5912 5912 5913 5914 5914 5913 5912 5912 5914 5915 5914 5913 5913 5914 5915 5914 5912 5913 5912 5912 5911 5909 5908 5907 5906 5905 5905 5902
5902 5904 5903 5904 5907 5908 5910 5910 5908 5909 5908 5908 5908 5909 5910 5910 5910 5912 5915 5915 5913 5911 5913 5915 5914 5914 5913 5915 5916 5916 5917 5915 5914 5914 5913 5910 5909 5909 5907 5906 5905 5906 5903
5899 5897 5900 5904 5905 5909 5910 5911 5910 5909 5909 5907 5905 5907 5907 5908 5910 5913 5915 5916 5915 5911 5912 5915 5916 5912 5912 5914 5915 5916 5916 5915 5914 5913 5912 5911 5910 5910 5910 5908 5905 5904 5903
5898 5899 5901 5905 5906 5908 5912 5910 5910 5910 5908 5910 5908 5907 5907 5910 5912 5913 5914 5915 5915 5915 5913 5913 5914 5915 5912 5912 5913 5913 5914 5913 5913 5912 5912 5911 5911 5910 5909 5906 5904 5902 5902
5899 5900 5900 5903 5904 5907 5909 5909 5911 5910 5909 5908 5909 5909 5910 5912 5915 5915 5914 5914 5915 5916 5917 5915 5913 5914 5915 5913 5911 5910 5912 5913 5913 5910 5911 5910 5910 5908 5908 5907 5906 5905 5901
5897 5898 5900 5901 5904 5906 5909 5908 5909 5909 5909 5909 5911 5910 5913 5915 5916 5915 5915 5913 5913 5912 5914 5914 5914 5912 5914 5914 5912 5911 5912 5913 5913 5910 5910 5910 5907 5905 5904 5902 5902 5904 5899
5896 5895 5897 5900 5903 5907 5908 5908 5907 5908 5910 5910 5911 5912 5914 5912 5912 5914 5913 5912 5913 5913 5911 5912 5912 5912 5912 5912 5911 5910 5910 5910 5910 5909 5907 5906 5904 5903 5901 5898 5897 5898 5895
5902 5900 5900 5900 5903 5904 5905 5906 5908 5909 5910 5909 5911 5912 5911 5909 5910 5910 5911 5911 5912 5910 5910 5910 5911 5910 5911 5908 5907 5907 5906 5905 5906 5906 5903 5901 5900 5897 5897 5894 5894 5891 5892
5903 5901 5901 5902 5901 5901 5904 5906 5910 5908 5907 5906 5906 5907 5908 5907 5905 5906 5908 5906 5908 5907 5906 5906 5908 5908 5907 5906 5904 5903 5902 5900 5899 5901 5901 5899 5897 5894 5893 5891 5888 5889 5889
5906 5906 5905 5902 5901 5903 5905 5905 5907 5906 5904 5904 5901 5902 5904 5904 5904 5903 5902 5902 5904 5905 5905 5905 5905 5904 5904 5902 5899 5899 5899 5897 5896 5894 5895 5895 5894 5891 5889 5888 5886 5884 5884